EHI
0 1 3 6 6 5 4 3 3 3 1 0 0 0 0 0 0 0 0 0 0 0 0 1 2 2 1 0 0 0 0 0 0 0 0 1 2 3 3 3 3 3 3
1 2 4 6 6 4 3 3 3 2 1 0 0 0 0 0 0 0 0 0 0 0 0 1 2 1 0 0 0 0 0 0 0 0 0 1 2 3 3 3 2 2 2
4 3 3 5 4 3 2 2 1 1 1 0 0 0 0 0 0 0 0 0 0 0 1 2 1 0 0 0 0 0 0 0 0 0 0 1 1 2 2 2 1 0 1
6 3 2 3 2 1 0 1 1 2 2 1 0 0 0 0 0 0 0 0 0 1 2 2 1 0 0 0 0 0 0 0 0 0 0 0 0 1 1 1 0 0 0
4 2 1 2 2 0 0 1 2 3 2 1 0 0 0 0 0 0 0 0 0 1 2 2 1 0 0 0 0 0 0 0 0 0 0 0 0 0 0 0 0 0 0
6 4 4 4 2 1 0 1 2 2 2 1 0 0 0 0 0 0 0 0 0 0 1 1 0 0 0 0 0 0 0 0 0 0 0 0 0 0 0 0 0 0 0
11 8 7 7 4 1 0 0 1 1 1 0 0 0 0 0 0 0 0 0 0 0 0 0 0 0 0 0 0 1 1 1 0 0 0 0 0 0 0 0 0 0 0
15 11 7 7 5 1 0 0 0 0 0 0 0 0 0 0 0 0 0 0 0 0 0 0 0 1 1 0 1 2 2 1 0 0 0 0 0 0 0 0 0 0 0
12 9 5 3 2 0 0 0 0 0 0 0 0 0 0 0 0 0 0 0 0 0 0 0 0 1 1 0 1 2 2 1 0 0 0 0 0 0 0 0 0 0 0
7 6 4 3 1 0 0 0 0 0 0 0 0 0 0 0 0 0 0 0 0 0 0 0 0 1 1 0 1 2 2 1 0 0 0 0 0 0 0 0 0 0 0
6 6 5 4 2 1 0 0 0 0 0 0 0 0 0 0 0 0 0 0 0 0 0 0 0 0 0 0 1 1 1 0 0 0 0 0 0 0 0 0 0 0 0
10 8 6 4 2 1 0 0 0 0 0 0 0 0 0 0 0 0 0 0 0 0 0 0 0 0 0 0 0 0 0 0 0 0 0 1 0 0 0 0 0 0 0
12 10 6 4 2 1 0 0 0 0 0 0 0 0 0 0 0 0 0 0 0 0 0 0 0 0 0 0 0 0 0 0 0 0 0 1 1 0 0 0 0 0 0
14 11 7 5 3 1 0 0 0 0 0 0 0 0 0 0 0 0 0 0 0 0 0 0 0 0 0 0 0 0 0 0 0 0 0 1 1 1 0 0 0 0 0
24 18 11 7 4 2 1 1 0 0 0 0 0 0 0 0 0 0 0 0 0 0 0 0 0 0 0 0 0 0 0 0 0 0 0 1 1 1 0 0 0 0 0
40 32 20 11 6 4 2 1 1 0 0 0 0 0 0 0 0 0 0 0 0 0 0 0 0 0 0 0 0 0 0 0 0 0 0 0 0 0 0 0 0 0 0
53 44 32 21 13 8 4 3 3 2 1 0 0 0 0 0 0 0 0 0 0 0 0 0 0 0 0 0 0 0 0 0 0 0 0 0 0 0 0 1 0 0 0
59 52 42 35 26 17 11 8 7 6 4 2 0 0 0 0 0 0 0 0 0 0 0 0 0 0 0 0 0 0 0 0 0 0 0 0 0 0 0 0 0 0 0
64 59 54 48 41 31 24 19 14 10 7 5 2 0 0 0 0 0 0 0 0 0 0 0 0 0 0 0 0 0 0 0 0 0 0 0 0 0 0 0 0 0 1
68 67 63 58 52 45 38 32 24 15 9 7 5 2 1 1 1 1 0 0 0 0 0 0 0 0 0 0 0 0 0 0 0 0 0 0 0 0 0 0 0 1 2
75 75 70 64 59 54 48 42 34 22 12 8 6 5 3 2 2 1 0 0 0 0 0 0 0 0 0 0 0 0 0 0 0 0 0 0 0 0 0 0 0 0 1
81 81 77 70 64 59 52 45 35 24 14 9 7 6 5 4 4 3 1 0 0 0 0 0 0 0 0 0 0 0 0 0 0 0 0 0 0 0 0 0 0 0 0
81 83 81 75 68 61 52 42 34 25 19 13 9 8 7 6 6 5 2 0 0 0 0 0 0 0 0 0 0 0 0 0 0 0 0 0 1 0 0 0 1 1 1
79 80 79 76 69 61 51 42 35 29 23 17 13 11 9 7 7 7 3 1 0 0 0 0 0 0 0 0 0 0 0 0 0 0 0 0 0 0 0 0 1 3 3
75 74 74 74 70 60 50 42 36 30 23 18 16 15 12 8 7 6 4 2 1 0 0 0 0 0 0 0 0 0 0 0 0 0 0 0 0 0 0 0 1 2 3
72 71 71 73 70 61 51 42 36 29 20 16 19 20 14 8 6 6 5 3 1 1 1 0 0 0 0 0 0 0 0 0 0 0 0 0 0 0 0 0 0 1 1
Wind_Speed
6 7 14 15 15 15 16 16 17 17 18 18 18 18 18 18 18 17 17 17 17 17 17 17 17 17 17 17 17 17 17 16 16 15 15 15 14 15 15 15 14 11 16
10 10 15 15 16 16 16 16 16 17 17 18 18 18 18 17 17 17 17 17 17 17 17 16 17 17 16 16 16 16 16 16 15 15 15 13 13 14 14 15 14 10 15
13 11 13 15 16 16 16 16 16 16 17 17 17 17 17 17 17 17 17 17 17 16 16 16 16 16 15 15 15 15 14 14 15 15 13 7 9 13 14 14 15 15 14
13 10 12 17 16 17 16 15 15 16 16 16 16 16 16 16 16 16 16 16 16 16 15 15 15 15 14 14 13 12 12 13 14 13 7 5 6 13 14 14 14 14 14
11 9 13 18 17 17 16 15 15 16 16 16 16 16 16 16 16 16 15 15 15 14 14 14 14 14 13 12 11 10 9 11 13 11 6 5 5 11 13 14 14 13 13
11 9 12 18 17 17 16 15 15 15 15 16 16 15 15 15 15 15 15 14 14 13 13 13 13 12 11 10 9 8 9 12 11 7 6 5 5 11 13 13 13 13 13
11 8 11 17 17 17 16 15 15 15 15 15 15 15 15 14 14 15 15 14 13 13 12 12 12 11 10 9 8 9 10 13 9 6 5 5 6 11 12 12 13 13 12
13 9 11 17 17 16 16 15 15 15 15 15 15 15 14 14 14 14 14 13 12 12 11 11 10 10 9 8 7 9 11 12 10 8 5 4 8 11 12 12 12 12 12
12 10 7 9 12 15 16 15 15 14 14 14 14 14 14 14 13 13 13 12 11 11 10 9 9 8 7 7 7 8 10 12 7 5 7 4 9 11 12 12 12 12 12
10 9 7 7 6 7 9 14 14 14 14 13 13 13 13 13 12 12 10 10 10 9 9 8 8 7 6 6 7 9 11 10 5 5 3 5 11 11 12 12 12 12 12
11 8 8 7 6 6 6 11 12 13 12 11 10 13 10 5 5 6 9 10 9 8 7 6 6 5 5 4 7 10 8 4 4 3 3 8 11 11 12 12 12 11 11
13 11 8 9 8 7 7 6 4 5 5 4 4 5 4 3 3 5 7 9 8 7 6 5 4 3 3 2 5 7 3 5 3 3 4 10 11 11 11 11 11 11 11
15 13 11 10 9 7 5 5 3 3 3 4 5 5 4 3 3 3 2 3 3 3 1 1 1 1 1 1 2 3 4 3 2 3 5 11 10 11 11 11 11 11 10
14 13 12 11 9 8 7 5 4 4 3 3 4 5 4 3 3 3 2 2 1 1 1 1 0 0 0 2 3 4 4 3 2 2 4 11 10 10 11 10 10 10 10
14 13 12 11 10 9 7 5 6 5 4 4 4 4 5 4 4 3 2 2 2 2 2 1 1 1 1 2 2 4 5 5 4 3 3 10 10 9 10 10 10 10 9
15 14 13 11 10 10 8 6 5 5 5 4 4 5 6 5 4 4 3 3 2 2 2 2 2 2 1 2 3 4 5 5 4 4 3 5 10 9 10 10 10 10 9
15 14 13 12 11 10 9 7 6 5 5 4 4 5 5 5 5 4 3 3 3 2 2 2 2 2 2 3 3 4 4 4 5 4 4 2 4 8 9 9 10 10 9
14 13 13 12 11 10 8 7 5 5 5 4 4 4 6 6 6 5 4 3 3 2 2 3 2 2 2 2 2 2 3 3 5 4 4 3 3 3 6 9 9 9 9
14 14 12 10 11 9 7 6 6 5 5 5 4 4 5 6 6 5 4 3 3 2 2 3 2 2 2 2 1 2 2 3 3 5 5 5 4 3 3 6 8 8 9
13 13 12 11 10 8 6 5 4 4 4 4 4 4 5 5 6 4 3 3 4 3 2 2 3 2 2 2 1 1 0 1 2 3 5 5 4 5 4 4 4 5 9
12 12 12 12 10 8 6 5 5 5 4 4 4 5 6 6 6 5 4 3 4 3 4 4 3 2 1 2 2 2 2 1 1 2 3 4 5 5 5 5 3 3 3
14 13 13 12 11 10 7 5 4 4 4 4 4 5 6 6 6 6 5 4 4 4 4 4 3 2 1 2 3 2 2 3 2 1 2 3 4 4 5 6 5 5 4
15 15 14 13 12 10 8 5 4 3 2 2 3 4 5 7 6 5 6 5 5 4 4 4 4 4 3 1 2 4 3 2 2 2 2 3 4 4 4 4 6 6 6
15 14 12 12 11 10 10 8 8 7 6 6 5 4 5 6 6 6 6 6 5 4 4 4 4 3 4 2 1 1 3 4 3 1 2 1 2 4 4 5 5 6 6
13 13 11 11 11 10 10 11 9 7 5 3 4 5 6 5 6 6 6 6 5 4 5 5 4 4 3 3 3 2 1 1 2 3 1 2 1 2 3 4 4 4 5
11 11 11 11 11 11 11 11 11 10 8 7 6 6 5 4 4 6 6 6 6 5 5 5 5 5 4 4 3 3 3 2 2 3 3 2 2 3 3 3 4 4 5
Wind_Direction
141 141 130 121 113 107 102 99 96 94 94 94 95 96 98 99 100 101 104 106 107 108 109 110 111 110 111 113 114 113 112 111 109 109 110 111 112 113 112 110 109 108 111
145 142 132 124 118 113 107 104 101 99 98 97 97 98 99 100 101 101 103 106 106 107 108 110 111 111 112 113 113 113 113 112 108 106 106 107 111 114 113 112 111 114 114
137 137 132 127 122 117 113 109 107 104 102 101 101 101 102 102 103 103 104 106 106 107 108 110 111 111 110 110 111 113 114 113 109 106 102 97 106 112 112 112 112 113 114
133 133 132 129 125 121 118 114 111 109 106 105 105 105 104 104 104 105 105 107 107 108 109 111 112 111 109 109 110 112 114 113 111 107 95 93 104 112 112 113 113 114 115
127 128 135 132 129 125 122 119 115 113 111 109 108 107 107 106 105 106 107 108 108 109 110 111 112 111 110 108 109 112 116 114 107 100 90 84 93 112 114 115 115 115 116
125 128 136 133 131 129 126 123 119 117 114 112 111 110 109 110 110 109 109 109 109 110 110 110 111 109 107 105 104 107 114 113 103 99 92 90 95 112 115 118 117 115 115
129 131 136 135 134 132 130 126 124 121 119 118 116 115 113 113 113 112 112 112 112 112 112 111 110 107 103 97 89 96 108 115 110 106 100 96 106 114 116 117 116 117 116
134 133 137 139 137 135 134 131 129 127 124 122 120 118 117 116 115 114 115 116 115 114 115 115 111 106 97 91 90 97 109 120 117 113 107 104 115 118 119 117 117 116 116
136 134 134 139 139 139 138 136 135 132 130 127 124 122 121 121 120 119 120 119 118 117 118 119 115 108 100 93 98 103 112 120 115 123 123 118 124 126 124 121 120 120 119
136 138 136 135 134 136 139 142 140 138 137 134 131 130 128 128 126 124 124 125 125 124 124 123 118 110 102 101 104 104 114 119 113 113 113 132 134 132 129 126 125 124 123
144 147 145 142 140 139 145 149 145 144 144 140 138 137 130 118 118 123 131 132 132 131 130 127 120 111 102 97 105 103 105 108 113 121 128 140 140 136 133 132 130 129 128
156 159 158 155 154 155 155 140 142 144 141 134 135 132 128 130 138 136 142 140 139 137 135 132 122 100 87 75 98 103 103 118 123 138 145 146 145 142 139 138 136 135 134
161 162 165 165 164 165 148 151 150 141 141 144 148 145 143 138 135 125 130 135 134 142 123 122 95 62 92 114 113 120 135 132 145 150 154 151 149 147 145 145 143 141 140
163 165 166 170 169 165 156 160 159 156 160 165 168 161 150 142 143 148 152 160 160 164 179 178 240 301 71 121 134 137 141 138 140 137 160 158 155 152 152 151 150 149 149
165 166 170 171 169 164 161 169 166 168 172 174 169 169 161 155 160 163 170 178 183 182 179 182 184 154 117 127 146 141 141 141 144 144 152 157 154 155 156 156 157 159 159
168 168 171 172 169 165 167 170 166 174 175 170 171 173 166 163 164 165 169 179 190 191 182 169 163 148 127 123 132 139 145 148 151 151 155 163 166 166 166 167 169 169 169
169 167 170 171 167 167 168 174 169 174 169 169 173 171 166 163 164 165 165 176 190 181 158 134 127 112 112 109 115 134 145 157 161 165 164 166 173 178 178 179 180 180 180
166 166 171 171 167 169 168 167 164 166 165 171 170 167 167 166 165 162 164 176 179 158 140 134 126 107 99 102 118 133 143 156 168 170 169 175 179 184 190 191 188 188 189
168 167 169 164 166 167 161 156 157 158 164 170 165 165 169 168 165 158 164 172 163 144 142 149 123 132 133 131 142 127 141 159 170 177 180 187 190 189 189 199 197 197 199
168 166 167 162 164 159 151 144 144 151 164 167 168 172 169 167 164 158 164 168 155 142 140 132 131 129 142 150 116 85 120 183 179 183 191 189 193 197 193 198 198 208 208
167 167 168 166 167 161 158 160 158 165 170 170 181 179 175 172 166 164 170 166 162 157 161 152 138 133 128 119 84 29 357 354 201 202 189 183 197 198 191 197 194 200 207
173 173 171 172 171 171 171 165 161 158 170 176 183 185 182 178 175 177 173 171 171 159 159 160 147 137 153 140 129 105 17 350 332 243 199 192 196 191 196 200 196 200 203
177 178 178 177 175 174 163 148 142 133 139 170 185 187 191 186 184 178 174 173 175 166 171 176 165 154 168 195 158 146 150 211 288 315 252 205 191 190 200 197 200 203 201
181 179 175 175 175 173 166 168 169 176 184 192 185 187 190 189 187 180 175 178 180 175 178 185 176 165 155 176 210 189 170 161 158 296 322 290 216 203 204 202 201 201 200
176 175 174 174 177 176 177 179 178 185 187 174 173 180 188 192 191 185 180 181 183 184 187 188 177 176 166 168 179 174 150 137 143 150 245 295 295 243 216 208 201 201 201
173 175 175 176 181 182 183 183 184 184 179 176 183 185 191 193 195 191 187 186 187 186 188 189 187 183 183 178 177 173 167 166 185 169 194 229 246 260 234 214 207 205 203